Location: �couen
(49.0206°N, 2.3831°E)
Time: 10:24:55
(UTC+00:00)

Cosmos 2098 - Pass Details

Date: 05 June 2022
Orbit: 387 x 1577 km, 82.9° (Epoch: 30 June)

Event Time Altitude Azimuth Distance (km) Brightness Sun altitude
Rises 01:19:49 0° 5° (N) 2,291 9.5 -15.6°
Reaches altitude 10° 01:22:10 10° 26° (NNE) 1,445 8.4 -15.5°
Maximum altitude 01:24:22 18° 73° (ENE) 1,094 6.8 -15.4°
Drops below altitude 10° 01:26:43 10° 119° (ESE) 1,564 7.1 -15.2°
Enters shadow 01:28:41 - 135° (SE) 2,280 7.8 -15.1°
